| time (UTC) | temp F | wind direction | speed knots | gust knots | rain 1hr in | rain 24hr in | rain mn in | humidity % | barometer mb |
| 20260510173040 | 53 | 184 | 3.5 | 12.2 | 0.00 | 0.11 | 0.11 | 89 | 1010.3 |
| 20260510171556 | 52 | 186 | 3.5 | 11.3 | 0.00 | 0.11 | 0.11 | 90 | 1010.3 |
| 20260510170037 | 52 | 191 | 4.3 | 12.2 | 0.00 | 0.11 | 0.11 | 91 | 1010.4 |
| 20260510164535 | 51 | 150 | 5.2 | 16.5 | 0.00 | 0.11 | 0.11 | 92 | 1010.6 |
| 20260510163032 | 50 | 158 | 2.6 | 14.8 | 0.00 | 0.11 | 0.11 | 93 | 1010.6 |
| 20260510161531 | 50 | 187 | 4.3 | 11.3 | 0.01 | 0.11 | 0.11 | 93 | 1010.8 |
| 20260510160036 | 50 | 189 | 2.6 | 11.3 | 0.01 | 0.11 | 0.11 | 94 | 1011.2 |
| 20260510154545 | 50 | 180 | 2.6 | 10.4 | 0.01 | 0.11 | 0.11 | 95 | 1011.4 |
| 20260510153042 | 49 | 189 | 3.5 | 10.4 | 0.01 | 0.11 | 0.11 | 95 | 1011.3 |
| 20260510151526 | 49 | 193 | 5.2 | 9.6 | 0.00 | 0.10 | 0.10 | 95 | 1011.3 |
| 20260510150027 | 49 | 192 | 3.5 | 7.8 | 0.00 | 0.10 | 0.10 | 95 | 1011.3 |
| 20260510144544 | 49 | 164 | 0.0 | 7.0 | 0.00 | 0.10 | 0.10 | 95 | 1011.2 |
| 20260510143025 | 49 | 162 | 2.6 | 9.6 | 0.00 | 0.10 | 0.10 | 94 | 1011.0 |
| 20260510141525 | 49 | 195 | 4.3 | 9.6 | 0.01 | 0.10 | 0.10 | 94 | 1010.9 |
| 20260510140024 | 49 | 163 | 1.7 | 11.3 | 0.02 | 0.10 | 0.10 | 94 | 1010.7 |
| 20260510134524 | 49 | 178 | 4.3 | 12.2 | 0.03 | 0.10 | 0.10 | 94 | 1010.9 |
| 20260510133023 | 49 | 165 | 1.7 | 10.4 | 0.03 | 0.10 | 0.10 | 94 | 1010.6 |
| 20260510131522 | 49 | 173 | 2.6 | 13.0 | 0.02 | 0.09 | 0.09 | 95 | 1010.4 |
| 20260510130021 | 48 | 151 | 4.3 | 10.4 | 0.02 | 0.08 | 0.08 | 94 | 1010.3 |
| 20260510124521 | 48 | 189 | 3.5 | 13.0 | 0.01 | 0.07 | 0.07 | 94 | 1010.6 |
| 20260510123016 | 48 | 150 | 4.3 | 11.3 | 0.01 | 0.07 | 0.07 | 94 | 1010.7 |
| 20260510121515 | 48 | 143 | 3.5 | 10.4 | 0.01 | 0.07 | 0.07 | 94 | 1010.8 |
| 20260510120017 | 48 | 154 | 4.3 | 11.3 | 0.01 | 0.06 | 0.06 | 94 | 1010.9 |
| 20260510114514 | 47 | 140 | 2.6 | 10.4 | 0.03 | 0.06 | 0.06 | 94 | 1010.9 |
| 20260510113018 | 47 | 157 | 2.6 | 9.6 | 0.03 | 0.06 | 0.06 | 94 | 1011.0 |
| 20260510111512 | 47 | 143 | 0.9 | 7.8 | 0.02 | 0.05 | 0.05 | 95 | 1011.1 |
| 20260510110015 | 47 | 153 | 4.3 | 8.7 | 0.01 | 0.04 | 0.04 | 95 | 1011.2 |
| 20260510104508 | 47 | 160 | 1.7 | 7.0 | 0.00 | 0.03 | 0.03 | 94 | 1011.4 |
| 20260510103007 | 46 | 197 | 3.5 | 7.8 | 0.00 | 0.03 | 0.03 | 94 | 1011.4 |
| 20260510101505 | 46 | 185 | 0.9 | 6.1 | 0.00 | 0.03 | 0.03 | 94 | 1011.5 |
| 20260510100004 | 46 | 150 | 1.7 | 7.0 | 0.00 | 0.03 | 0.03 | 95 | 1011.5 |
| 20260510094504 | 46 | 146 | 0.0 | 5.2 | 0.00 | 0.03 | 0.03 | 94 | 1011.5 |
| 20260510093001 | 46 | 116 | 1.7 | 7.8 | 0.00 | 0.03 | 0.03 | 94 | 1011.7 |
| 20260510091600 | 46 | 155 | 2.6 | 7.0 | 0.00 | 0.03 | 0.03 | 94 | 1011.7 |
| 20260510090059 | 45 | 162 | 0.9 | 6.1 | 0.00 | 0.03 | 0.03 | 94 | 1011.9 |
| 20260510084603 | 45 | 174 | 1.7 | 7.0 | 0.00 | 0.03 | 0.03 | 94 | 1012.0 |
| 20260510083115 | 45 | 162 | 2.6 | 7.8 | 0.00 | 0.03 | 0.03 | 94 | 1012.2 |
| 20260510081613 | 45 | 178 | 2.6 | 7.0 | 0.00 | 0.03 | 0.03 | 94 | 1012.2 |
| 20260510080054 | 45 | 171 | 2.6 | 6.1 | 0.00 | 0.03 | 0.03 | 95 | 1012.2 |
| 20260510074554 | 45 | 144 | 0.9 | 6.1 | 0.00 | 0.03 | 0.03 | 95 | 1012.2 |
| 20260510073054 | 44 | 194 | 0.9 | 6.1 | 0.01 | 0.03 | 0.03 | 95 | 1012.2 |
| 20260510071550 | 44 | 157 | 1.7 | 5.2 | 0.01 | 0.03 | 0.03 | 95 | 1012.2 |
| 20260510070048 | 43 | 142 | 1.7 | 7.8 | 0.01 | 0.03 | 0.03 | 95 | 1012.1 |
| 20260510064549 | 43 | 155 | 1.7 | 5.2 | 0.02 | 0.03 | 0.03 | 95 | 1012.0 |
| 20260510063045 | 42 | 168 | 0.0 | 7.0 | 0.01 | 0.02 | 0.02 | 94 | 1012.1 |
| 20260510061552 | 42 | 146 | 0.9 | 3.5 | 0.01 | 0.02 | 0.02 | 94 | 1012.2 |
| 20260510060045 | 42 | 162 | 0.0 | 2.6 | 0.01 | 0.02 | 0.02 | 94 | 1012.5 |
| 20260510054538 | 41 | 152 | 0.0 | 2.6 | 0.01 | 0.01 | 0.01 | 93 | 1012.5 |
| 20260510053036 | 41 | 156 | 0.0 | 0.0 | 0.01 | 0.01 | 0.01 | 93 | 1012.6 |
| 20260510051541 | 41 | 149 | 0.0 | 0.0 | 0.01 | 0.01 | 0.01 | 93 | 1012.6 |
| 20260510050035 | 41 | 133 | 0.0 | 0.0 | 0.01 | 0.01 | 0.01 | 92 | 1012.6 |
| 20260510044534 | 41 | 119 | 0.0 | 0.0 | 0.00 | 0.00 | 0.00 | 92 | 1012.6 |
| 20260510043033 | 41 | 126 | 1.7 | 6.1 | 0.00 | 0.00 | 0.00 | 91 | 1012.6 |
| 20260510041535 | 41 | 167 | 0.0 | 2.6 | 0.00 | 0.00 | 0.00 | 91 | 1013.0 |
| 20260510040028 | 41 | 171 | 2.6 | 9.6 | 0.00 | 0.00 | 0.00 | 90 | 1013.0 |
| 20260510034528 | 41 | 165 | 2.6 | 9.6 | 0.00 | 0.00 | 0.00 | 88 | 1013.3 |
| 20260510033026 | 42 | 152 | 4.3 | 9.6 | 0.00 | 0.00 | 0.00 | 86 | 1013.4 |
| 20260510031526 | 42 | 131 | 7.0 | 11.3 | 0.00 | 0.00 | 0.00 | 84 | 1013.5 |
| 20260510030033 | 42 | 169 | 7.0 | 13.0 | 0.00 | 0.00 | 0.00 | 82 | 1013.7 |
| 20260510024533 | 43 | 148 | 6.1 | 11.3 | 0.00 | 0.00 | 0.00 | 81 | 1013.9 |
| 20260510023024 | 43 | 126 | 2.6 | 8.7 | 0.00 | 0.00 | 0.00 | 80 | 1014.0 |
| 20260510021532 | 43 | 159 | 6.1 | 10.4 | 0.00 | 0.00 | 0.00 | 79 | 1014.1 |
| 20260510020024 | 43 | 163 | 4.3 | 9.6 | 0.00 | 0.00 | 0.00 | 77 | 1014.2 |
| 20260510014523 | 44 | 140 | 6.1 | 10.4 | 0.00 | 0.00 | 0.00 | 75 | 1014.2 |
| 20260510013023 | 44 | 170 | 7.0 | 13.9 | 0.00 | 0.00 | 0.00 | 74 | 1014.4 |
| 20260510011522 | 44 | 199 | 6.1 | 12.2 | 0.00 | 0.00 | 0.00 | 72 | 1014.4 |
| 20260510010021 | 45 | 182 | 6.1 | 13.9 | 0.00 | 0.00 | 0.00 | 70 | 1014.2 |
| 20260510004519 | 45 | 168 | 5.2 | 10.4 | 0.00 | 0.00 | 0.00 | 66 | 1014.1 |
| 20260510003022 | 46 | 183 | 5.2 | 11.3 | 0.00 | 0.00 | 0.00 | 64 | 1013.9 |
| 20260510001516 | 47 | 151 | 7.0 | 12.2 | 0.00 | 0.00 | 0.00 | 62 | 1013.6 |
| 20260510000015 | 47 | 138 | 7.0 | 13.9 | 0.00 | 0.00 | 0.00 | 60 | 1013.4 |
| 20260509234527 | 48 | 193 | 6.1 | 9.6 | 0.00 | 0.00 | 0.00 | 56 | 1013.4 |
| 20260509233013 | 49 | 185 | 6.1 | 13.0 | 0.00 | 0.00 | 0.00 | 54 | 1013.2 |
| 20260509231514 | 50 | 194 | 7.0 | 13.0 | 0.00 | 0.00 | 0.00 | 51 | 1013.1 |
| 20260509230013 | 50 | 164 | 7.8 | 16.5 | 0.00 | 0.00 | 0.00 | 48 | 1012.8 |
| 20260509224512 | 51 | 190 | 5.2 | 15.6 | 0.00 | 0.00 | 0.00 | 46 | 1012.7 |
| 20260509223015 | 52 | 236 | 7.0 | 18.2 | 0.00 | 0.00 | 0.00 | 45 | 1012.5 |
| 20260509221513 | 53 | 178 | 4.3 | 20.9 | 0.00 | 0.00 | 0.00 | 43 | 1012.3 |
| 20260509220014 | 54 | 186 | 9.6 | 21.7 | 0.00 | 0.00 | 0.00 | 41 | 1012.1 |
| 20260509214510 | 55 | 251 | 4.3 | 14.8 | 0.00 | 0.00 | 0.00 | 40 | 1011.9 |
| 20260509213010 | 56 | 175 | 7.0 | 13.9 | 0.00 | 0.00 | 0.00 | 36 | 1011.9 |
| 20260509211509 | 56 | 173 | 3.5 | 13.0 | 0.00 | 0.00 | 0.00 | 35 | 1011.9 |
| 20260509210009 | 57 | 144 | 1.7 | 10.4 | 0.00 | 0.00 | 0.00 | 34 | 1011.9 |
| 20260509204507 | 56 | 144 | 6.1 | 13.0 | 0.00 | 0.00 | 0.00 | 36 | 1011.8 |
| 20260509203008 | 57 | 205 | 3.5 | 9.6 | 0.00 | 0.00 | 0.00 | 33 | 1011.9 |
| 20260509201506 | 56 | 219 | 2.6 | 11.3 | 0.00 | 0.00 | 0.00 | 36 | 1011.9 |
| 20260509200006 | 56 | 117 | 4.3 | 11.3 | 0.00 | 0.00 | 0.00 | 33 | 1011.9 |
| 20260509194505 | 56 | 179 | 2.6 | 14.8 | 0.00 | 0.00 | 0.00 | 35 | 1012.0 |
| 20260509193006 | 56 | 141 | 7.8 | 18.2 | 0.00 | 0.00 | 0.00 | 35 | 1012.1 |
| 20260509191506 | 56 | 243 | 1.7 | 10.4 | 0.00 | 0.00 | 0.00 | 36 | 1012.0 |
| 20260509190006 | 56 | 190 | 6.1 | 13.0 | 0.00 | 0.00 | 0.00 | 33 | 1012.2 |
| 20260509184502 | 56 | 155 | 0.0 | 10.4 | 0.00 | 0.00 | 0.00 | 35 | 1012.1 |
| 20260509183002 | 56 | 223 | 6.1 | 13.9 | 0.00 | 0.00 | 0.00 | 34 | 1012.3 |
| 20260509181501 | 57 | 217 | 2.6 | 10.4 | 0.00 | 0.00 | 0.00 | 37 | 1012.1 |
| 20260509180109 | 56 | 166 | 3.5 | 9.6 | 0.00 | 0.00 | 0.00 | 39 | 1012.3 |
| 20260509174554 | 55 | 232 | 4.3 | 15.6 | 0.00 | 0.00 | 0.00 | 39 | 1012.5 |